QPF
0.00 0.01 0.01 0.01 0.01 0.02 0.02 0.01 0.01 0.02 0.02 0.02 0.03 0.03 0.03 0.03 0.03 0.03 0.02 0.03 0.03 0.05 0.05 0.04 0.05 0.06 0.07 0.06 0.06 0.06 0.09 0.09 0.09 0.11 0.12 0.10 0.07 0.06 0.04 0.03 0.03 0.02 0.02
0.00 0.01 0.01 0.01 0.01 0.01 0.01 0.01 0.01 0.01 0.01 0.01 0.02 0.02 0.02 0.02 0.02 0.02 0.02 0.02 0.02 0.03 0.05 0.05 0.05 0.05 0.05 0.05 0.05 0.04 0.06 0.07 0.08 0.14 0.15 0.12 0.09 0.06 0.04 0.03 0.02 0.02 0.02
0.01 0.01 0.01 0.02 0.02 0.01 0.01 0.01 0.01 0.01 0.01 0.01 0.01 0.01 0.02 0.02 0.02 0.02 0.02 0.02 0.02 0.02 0.03 0.03 0.02 0.03 0.03 0.04 0.03 0.03 0.04 0.05 0.07 0.10 0.10 0.08 0.06 0.06 0.05 0.03 0.02 0.02 0.01
0.01 0.01 0.02 0.03 0.05 0.03 0.01 0.01 0.01 0.01 0.02 0.02 0.01 0.01 0.01 0.01 0.01 0.01 0.02 0.02 0.02 0.02 0.02 0.01 0.02 0.02 0.02 0.03 0.02 0.03 0.03 0.04 0.06 0.07 0.07 0.06 0.06 0.06 0.05 0.05 0.05 0.05 0.03
0.00 0.00 0.01 0.02 0.03 0.02 0.01 0.01 0.01 0.02 0.02 0.02 0.02 0.02 0.02 0.02 0.01 0.01 0.01 0.01 0.02 0.02 0.02 0.02 0.02 0.03 0.03 0.04 0.03 0.04 0.05 0.05 0.07 0.08 0.08 0.07 0.07 0.06 0.05 0.06 0.06 0.06 0.06
0.00 0.00 0.01 0.01 0.01 0.01 0.01 0.01 0.01 0.02 0.02 0.02 0.03 0.03 0.02 0.02 0.02 0.01 0.01 0.01 0.02 0.03 0.03 0.03 0.02 0.03 0.03 0.04 0.03 0.03 0.03 0.03 0.06 0.07 0.07 0.07 0.06 0.05 0.06 0.06 0.06 0.06 0.05
0.00 0.00 0.01 0.01 0.01 0.02 0.02 0.03 0.03 0.03 0.03 0.03 0.02 0.02 0.01 0.02 0.01 0.01 0.00 0.01 0.01 0.02 0.03 0.03 0.01 0.01 0.01 0.02 0.02 0.01 0.01 0.01 0.01 0.02 0.03 0.04 0.04 0.05 0.06 0.05 0.05 0.06 0.06
0.00 0.01 0.01 0.02 0.02 0.02 0.04 0.06 0.05 0.04 0.04 0.03 0.02 0.01 0.02 0.02 0.02 0.02 0.01 0.00 0.00 0.01 0.01 0.01 0.02 0.01 0.01 0.01 0.01 0.01 0.01 0.01 0.01 0.01 0.01 0.01 0.02 0.02 0.03 0.03 0.04 0.03 0.03
0.00 0.01 0.02 0.03 0.03 0.03 0.05 0.04 0.04 0.04 0.04 0.03 0.03 0.03 0.03 0.03 0.03 0.02 0.01 0.00 0.00 0.00 0.00 0.01 0.01 0.01 0.01 0.01 0.01 0.01 0.02 0.02 0.01 0.01 0.01 0.01 0.01 0.01 0.01 0.02 0.02 0.02 0.02
0.02 0.04 0.05 0.04 0.04 0.03 0.03 0.03 0.03 0.03 0.03 0.04 0.05 0.05 0.04 0.03 0.04 0.02 0.01 0.00 0.01 0.01 0.01 0.01 0.01 0.01 0.01 0.01 0.01 0.01 0.02 0.02 0.01 0.01 0.01 0.01 0.00 0.01 0.01 0.01 0.01 0.02 0.02
0.04 0.05 0.06 0.05 0.05 0.04 0.04 0.03 0.03 0.04 0.05 0.05 0.05 0.04 0.03 0.02 0.03 0.01 0.00 0.00 0.01 0.02 0.01 0.01 0.01 0.02 0.02 0.01 0.01 0.01 0.02 0.02 0.02 0.01 0.01 0.01 0.00 0.00 0.00 0.01 0.01 0.02 0.03
0.04 0.05 0.06 0.06 0.05 0.05 0.05 0.05 0.05 0.05 0.05 0.05 0.05 0.04 0.03 0.02 0.02 0.01 0.01 0.01 0.01 0.01 0.01 0.02 0.02 0.02 0.02 0.02 0.01 0.01 0.01 0.01 0.01 0.00 0.01 0.01 0.01 0.01 0.01 0.01 0.01 0.01 0.02
0.04 0.05 0.07 0.09 0.09 0.08 0.08 0.07 0.06 0.05 0.04 0.04 0.04 0.04 0.03 0.02 0.02 0.01 0.02 0.02 0.02 0.02 0.03 0.03 0.03 0.02 0.02 0.02 0.02 0.02 0.01 0.01 0.01 0.00 0.01 0.01 0.01 0.00 0.00 0.01 0.01 0.01 0.01
0.03 0.04 0.04 0.04 0.04 0.04 0.03 0.03 0.03 0.03 0.03 0.02 0.03 0.03 0.02 0.02 0.02 0.02 0.02 0.02 0.02 0.02 0.02 0.02 0.02 0.02 0.02 0.01 0.01 0.01 0.01 0.01 0.01 0.01 0.01 0.01 0.00 0.00 0.00 0.00 0.01 0.01 0.01
0.03 0.04 0.04 0.04 0.04 0.03 0.03 0.02 0.02 0.02 0.03 0.03 0.04 0.04 0.03 0.03 0.03 0.02 0.02 0.02 0.01 0.01 0.01 0.01 0.01 0.01 0.01 0.01 0.01 0.01 0.01 0.01 0.01 0.01 0.01 0.01 0.00 0.00 0.00 0.00 0.01 0.01 0.01
0.03 0.03 0.04 0.05 0.05 0.05 0.03 0.04 0.04 0.04 0.04 0.04 0.05 0.04 0.03 0.03 0.02 0.02 0.02 0.01 0.01 0.01 0.01 0.01 0.01 0.01 0.01 0.01 0.01 0.02 0.01 0.01 0.02 0.02 0.02 0.01 0.01 0.01 0.01 0.01 0.01 0.01 0.00
0.03 0.03 0.03 0.04 0.05 0.06 0.05 0.04 0.03 0.03 0.04 0.03 0.03 0.02 0.02 0.02 0.02 0.03 0.03 0.02 0.02 0.03 0.02 0.01 0.01 0.01 0.01 0.01 0.01 0.01 0.01 0.02 0.02 0.02 0.02 0.01 0.01 0.01 0.01 0.01 0.01 0.01 0.00
0.03 0.03 0.03 0.03 0.03 0.04 0.04 0.04 0.03 0.03 0.03 0.03 0.03 0.03 0.03 0.03 0.03 0.03 0.03 0.03 0.04 0.04 0.04 0.04 0.03 0.02 0.02 0.02 0.02 0.02 0.01 0.02 0.02 0.01 0.02 0.02 0.01 0.01 0.01 0.01 0.01 0.01 0.01
0.03 0.03 0.03 0.03 0.03 0.03 0.03 0.03 0.02 0.03 0.03 0.02 0.02 0.02 0.03 0.03 0.03 0.02 0.03 0.03 0.04 0.04 0.04 0.04 0.04 0.04 0.04 0.03 0.03 0.03 0.02 0.02 0.02 0.03 0.03 0.03 0.03 0.03 0.02 0.02 0.02 0.02 0.02
0.03 0.04 0.04 0.04 0.04 0.04 0.03 0.03 0.04 0.04 0.04 0.03 0.03 0.02 0.02 0.02 0.02 0.02 0.02 0.01 0.02 0.02 0.03 0.03 0.03 0.03 0.03 0.03 0.02 0.02 0.02 0.02 0.02 0.02 0.02 0.02 0.02 0.02 0.02 0.03 0.02 0.02 0.02
0.04 0.04 0.05 0.04 0.04 0.04 0.05 0.05 0.06 0.07 0.07 0.06 0.05 0.04 0.03 0.02 0.02 0.01 0.01 0.01 0.01 0.01 0.01 0.02 0.02 0.02 0.02 0.02 0.02 0.02 0.01 0.01 0.01 0.01 0.01 0.01 0.01 0.02 0.02 0.02 0.02 0.02 0.02
0.03 0.04 0.05 0.06 0.07 0.08 0.07 0.07 0.06 0.07 0.06 0.05 0.03 0.03 0.03 0.03 0.02 0.01 0.01 0.01 0.01 0.01 0.01 0.01 0.01 0.01 0.01 0.01 0.01 0.01 0.00 0.00 0.00 0.01 0.01 0.01 0.01 0.01 0.02 0.01 0.01 0.01 0.02
0.03 0.04 0.05 0.07 0.07 0.09 0.11 0.10 0.07 0.05 0.04 0.04 0.04 0.04 0.03 0.02 0.02 0.02 0.02 0.01 0.01 0.01 0.01 0.01 0.01 0.01 0.00 0.00 0.00 0.00 0.00 0.00 0.00 0.00 0.01 0.01 0.01 0.01 0.01 0.01 0.01 0.01 0.02
0.03 0.03 0.04 0.04 0.06 0.06 0.07 0.08 0.08 0.07 0.05 0.03 0.03 0.04 0.05 0.05 0.04 0.02 0.02 0.02 0.02 0.02 0.02 0.02 0.01 0.01 0.00 0.00 0.00 0.00 0.00 0.00 0.00 0.00 0.01 0.01 0.01 0.01 0.01 0.01 0.01 0.02 0.02
0.03 0.03 0.04 0.04 0.05 0.05 0.05 0.05 0.04 0.05 0.05 0.05 0.05 0.04 0.03 0.04 0.05 0.04 0.04 0.03 0.02 0.02 0.02 0.02 0.02 0.01 0.00 0.00 0.00 0.00 0.01 0.01 0.01 0.01 0.01 0.01 0.01 0.01 0.01 0.01 0.01 0.01 0.01
0.03 0.03 0.04 0.04 0.04 0.04 0.03 0.04 0.05 0.05 0.05 0.06 0.06 0.07 0.05 0.04 0.04 0.05 0.04 0.04 0.03 0.02 0.02 0.01 0.01 0.01 0.01 0.01 0.01 0.02 0.02 0.02 0.01 0.01 0.01 0.01 0.01 0.01 0.01 0.01 0.01 0.01 0.01
MSLP
1008.97 1009.68 1010.34 1010.88 1011.29 1011.56 1011.71 1011.80 1011.88 1012.02 1012.24 1012.59 1013.04 1013.57 1014.13 1014.65 1015.10 1015.45 1015.68 1015.80 1015.85 1015.87 1015.90 1015.96 1016.07 1016.23 1016.43 1016.61 1016.76 1016.83 1016.81 1016.68 1016.45 1016.13 1015.74 1015.32 1014.89 1014.49 1014.14 1013.85 1013.65 1013.54 1013.51
1008.16 1008.92 1009.63 1010.23 1010.69 1011.02 1011.22 1011.34 1011.44 1011.57 1011.78 1012.09 1012.50 1013.00 1013.52 1014.04 1014.49 1014.85 1015.10 1015.25 1015.33 1015.36 1015.38 1015.43 1015.52 1015.66 1015.84 1016.03 1016.20 1016.32 1016.38 1016.35 1016.23 1016.03 1015.75 1015.42 1015.07 1014.70 1014.36 1014.05 1013.80 1013.62 1013.52
1007.39 1008.15 1008.88 1009.52 1010.03 1010.41 1010.66 1010.83 1010.97 1011.11 1011.32 1011.61 1011.99 1012.44 1012.93 1013.41 1013.85 1014.21 1014.47 1014.64 1014.74 1014.79 1014.83 1014.88 1014.96 1015.09 1015.26 1015.45 1015.64 1015.81 1015.93 1015.99 1015.98 1015.89 1015.73 1015.51 1015.24 1014.94 1014.63 1014.32 1014.05 1013.82 1013.64
1006.68 1007.40 1008.10 1008.74 1009.27 1009.69 1010.00 1010.23 1010.41 1010.60 1010.82 1011.11 1011.46 1011.88 1012.32 1012.77 1013.17 1013.52 1013.78 1013.97 1014.09 1014.17 1014.23 1014.30 1014.39 1014.52 1014.68 1014.88 1015.08 1015.28 1015.45 1015.58 1015.66 1015.68 1015.63 1015.51 1015.34 1015.12 1014.86 1014.59 1014.31 1014.05 1013.82
1006.05 1006.68 1007.31 1007.90 1008.42 1008.85 1009.20 1009.48 1009.72 1009.96 1010.22 1010.52 1010.87 1011.26 1011.67 1012.07 1012.44 1012.76 1013.03 1013.23 1013.37 1013.48 1013.57 1013.67 1013.78 1013.92 1014.09 1014.28 1014.49 1014.70 1014.90 1015.08 1015.23 1015.33 1015.38 1015.37 1015.29 1015.16 1014.98 1014.75 1014.50 1014.24 1013.99
1005.54 1006.01 1006.52 1007.02 1007.48 1007.90 1008.26 1008.59 1008.88 1009.18 1009.48 1009.81 1010.16 1010.53 1010.91 1011.28 1011.62 1011.92 1012.18 1012.39 1012.55 1012.70 1012.83 1012.95 1013.09 1013.25 1013.42 1013.61 1013.82 1014.03 1014.25 1014.46 1014.65 1014.81 1014.94 1015.02 1015.04 1015.00 1014.90 1014.75 1014.55 1014.31 1014.07
1005.16 1005.46 1005.80 1006.17 1006.54 1006.90 1007.25 1007.59 1007.92 1008.26 1008.60 1008.95 1009.32 1009.68 1010.04 1010.38 1010.69 1010.97 1011.22 1011.43 1011.62 1011.80 1011.96 1012.13 1012.30 1012.47 1012.66 1012.85 1013.05 1013.25 1013.47 1013.68 1013.90 1014.11 1014.29 1014.45 1014.56 1014.62 1014.61 1014.55 1014.42 1014.24 1014.04
1004.96 1005.06 1005.22 1005.43 1005.67 1005.95 1006.24 1006.56 1006.89 1007.24 1007.61 1007.98 1008.35 1008.70 1009.04 1009.35 1009.64 1009.90 1010.14 1010.36 1010.57 1010.77 1010.98 1011.18 1011.38 1011.58 1011.77 1011.97 1012.16 1012.35 1012.56 1012.78 1013.00 1013.24 1013.47 1013.69 1013.88 1014.03 1014.12 1014.15 1014.11 1014.01 1013.87
1004.94 1004.86 1004.84 1004.87 1004.97 1005.12 1005.33 1005.58 1005.88 1006.21 1006.56 1006.92 1007.27 1007.61 1007.92 1008.21 1008.47 1008.71 1008.94 1009.17 1009.40 1009.64 1009.88 1010.12 1010.35 1010.58 1010.79 1010.99 1011.19 1011.38 1011.58 1011.79 1012.03 1012.28 1012.55 1012.82 1013.07 1013.30 1013.47 1013.59 1013.65 1013.64 1013.58
1005.08 1004.85 1004.67 1004.54 1004.48 1004.49 1004.57 1004.73 1004.95 1005.22 1005.52 1005.83 1006.15 1006.45 1006.72 1006.98 1007.21 1007.44 1007.67 1007.90 1008.15 1008.42 1008.69 1008.97 1009.25 1009.51 1009.75 1009.98 1010.18 1010.38 1010.59 1010.81 1011.05 1011.32 1011.62 1011.92 1012.22 1012.50 1012.75 1012.94 1013.08 1013.16 1013.19
1005.33 1004.99 1004.68 1004.40 1004.19 1004.05 1004.00 1004.03 1004.13 1004.30 1004.51 1004.76 1005.01 1005.25 1005.48 1005.70 1005.91 1006.12 1006.35 1006.59 1006.86 1007.16 1007.48 1007.80 1008.12 1008.43 1008.71 1008.97 1009.21 1009.44 1009.67 1009.90 1010.16 1010.45 1010.75 1011.08 1011.41 1011.72 1012.01 1012.25 1012.45 1012.60 1012.69
1005.61 1005.21 1004.79 1004.40 1004.05 1003.77 1003.57 1003.45 1003.42 1003.46 1003.56 1003.70 1003.87 1004.04 1004.22 1004.40 1004.59 1004.79 1005.02 1005.28 1005.57 1005.90 1006.26 1006.63 1007.01 1007.37 1007.71 1008.02 1008.32 1008.59 1008.86 1009.13 1009.41 1009.71 1010.02 1010.35 1010.68 1011.00 1011.30 1011.56 1011.79 1011.97 1012.12
1005.82 1005.38 1004.90 1004.42 1003.96 1003.55 1003.20 1002.94 1002.76 1002.67 1002.65 1002.68 1002.75 1002.85 1002.97 1003.12 1003.28 1003.48 1003.71 1003.99 1004.31 1004.67 1005.07 1005.50 1005.93 1006.36 1006.77 1007.15 1007.51 1007.85 1008.17 1008.49 1008.80 1009.11 1009.43 1009.75 1010.05 1010.35 1010.63 1010.87 1011.09 1011.29 1011.46
1005.83 1005.39 1004.88 1004.35 1003.80 1003.28 1002.82 1002.43 1002.11 1001.89 1001.74 1001.67 1001.65 1001.68 1001.76 1001.87 1002.02 1002.21 1002.45 1002.75 1003.09 1003.49 1003.93 1004.40 1004.89 1005.39 1005.87 1006.34 1006.78 1007.20 1007.59 1007.96 1008.30 1008.63 1008.94 1009.23 1009.50 1009.75 1009.97 1010.18 1010.37 1010.54 1010.71
1005.60 1005.16 1004.65 1004.08 1003.49 1002.90 1002.34 1001.84 1001.42 1001.09 1000.84 1000.67 1000.59 1000.56 1000.60 1000.68 1000.82 1001.01 1001.26 1001.56 1001.92 1002.34 1002.82 1003.33 1003.87 1004.43 1004.99 1005.55 1006.07 1006.58 1007.04 1007.46 1007.84 1008.18 1008.48 1008.73 1008.95 1009.14 1009.30 1009.45 1009.59 1009.74 1009.90
1005.08 1004.67 1004.17 1003.59 1002.97 1002.34 1001.73 1001.17 1000.67 1000.26 999.94 999.72 999.58 999.51 999.52 999.59 999.72 999.90 1000.14 1000.45 1000.81 1001.24 1001.73 1002.26 1002.84 1003.46 1004.08 1004.71 1005.32 1005.90 1006.43 1006.91 1007.33 1007.68 1007.96 1008.19 1008.35 1008.47 1008.57 1008.66 1008.76 1008.88 1009.04
1004.33 1003.94 1003.46 1002.90 1002.28 1001.64 1001.01 1000.42 999.89 999.44 999.09 998.83 998.66 998.57 998.56 998.62 998.73 998.90 999.13 999.41 999.76 1000.17 1000.65 1001.19 1001.79 1002.43 1003.10 1003.78 1004.46 1005.11 1005.70 1006.23 1006.68 1007.05 1007.32 1007.51 1007.64 1007.71 1007.76 1007.81 1007.88 1008.00 1008.17
1003.43 1003.07 1002.61 1002.08 1001.48 1000.86 1000.24 999.66 999.13 998.68 998.31 998.05 997.87 997.78 997.75 997.80 997.89 998.04 998.23 998.48 998.78 999.15 999.59 1000.10 1000.68 1001.33 1002.02 1002.74 1003.46 1004.15 1004.80 1005.37 1005.85 1006.23 1006.50 1006.68 1006.78 1006.83 1006.86 1006.90 1006.98 1007.11 1007.33
1002.48 1002.13 1001.71 1001.21 1000.65 1000.07 999.49 998.93 998.43 997.99 997.65 997.39 997.23 997.13 997.11 997.13 997.20 997.31 997.46 997.64 997.88 998.18 998.56 999.01 999.55 1000.17 1000.85 1001.57 1002.31 1003.03 1003.71 1004.31 1004.82 1005.21 1005.50 1005.68 1005.79 1005.85 1005.89 1005.95 1006.07 1006.26 1006.54
1001.56 1001.23 1000.83 1000.37 999.85 999.31 998.77 998.26 997.80 997.40 997.09 996.86 996.71 996.63 996.60 996.61 996.65 996.71 996.79 996.91 997.06 997.27 997.56 997.94 998.41 998.97 999.61 1000.31 1001.04 1001.77 1002.47 1003.09 1003.61 1004.03 1004.34 1004.55 1004.69 1004.78 1004.87 1005.00 1005.18 1005.46 1005.84
1000.72 1000.39 1000.01 999.58 999.10 998.60 998.11 997.64 997.22 996.86 996.59 996.39 996.26 996.19 996.16 996.16 996.17 996.18 996.20 996.24 996.30 996.42 996.61 996.90 997.28 997.76 998.35 999.00 999.71 1000.43 1001.12 1001.75 1002.30 1002.75 1003.09 1003.34 1003.53 1003.69 1003.86 1004.06 1004.35 1004.73 1005.22
999.96 999.63 999.25 998.83 998.37 997.90 997.43 997.00 996.62 996.30 996.06 995.89 995.79 995.73 995.71 995.70 995.68 995.66 995.63 995.59 995.58 995.61 995.71 995.89 996.19 996.59 997.10 997.71 998.37 999.06 999.75 1000.39 1000.95 1001.44 1001.83 1002.14 1002.40 1002.63 1002.89 1003.20 1003.59 1004.08 1004.68
999.24 998.89 998.50 998.07 997.61 997.15 996.69 996.27 995.91 995.61 995.40 995.26 995.18 995.15 995.14 995.13 995.11 995.07 995.00 994.92 994.85 994.81 994.83 994.94 995.15 995.48 995.93 996.47 997.10 997.77 998.44 999.09 999.68 1000.20 1000.65 1001.03 1001.36 1001.69 1002.04 1002.45 1002.94 1003.53 1004.23
998.54 998.15 997.72 997.26 996.77 996.29 995.82 995.39 995.03 994.75 994.54 994.42 994.37 994.36 994.38 994.39 994.39 994.35 994.28 994.19 994.09 994.01 993.99 994.04 994.20 994.47 994.87 995.38 995.97 996.62 997.29 997.95 998.57 999.14 999.64 1000.09 1000.51 1000.92 1001.36 1001.86 1002.44 1003.11 1003.87
997.82 997.38 996.90 996.38 995.85 995.32 994.82 994.36 993.98 993.69 993.49 993.38 993.35 993.37 993.42 993.47 993.50 993.49 993.45 993.38 993.29 993.22 993.18 993.22 993.36 993.61 993.98 994.46 995.04 995.69 996.37 997.05 997.71 998.32 998.89 999.41 999.90 1000.39 1000.91 1001.47 1002.11 1002.83 1003.63
997.12 996.61 996.07 995.49 994.89 994.30 993.74 993.25 992.83 992.52 992.31 992.20 992.18 992.23 992.32 992.42 992.50 992.55 992.57 992.54 992.50 992.46 992.46 992.52 992.67 992.93 993.30 993.79 994.38 995.03 995.74 996.45 997.15 997.82 998.44 999.03 999.59 1000.14 1000.71 1001.32 1001.99 1002.72 1003.53
Thickness
5803 5799 5796 5792 5789 5786 5783 5780 5777 5775 5773 5770 5768 5765 5763 5760 5758 5756 5753 5751 5749 5747 5745 5743 5740 5739 5737 5736 5734 5731 5727 5721 5711 5707 5707 5705 5702 5698 5694 5692 5688 5685 5682
5804 5800 5796 5793 5789 5785 5782 5779 5777 5773 5771 5768 5766 5763 5761 5758 5756 5753 5750 5749 5746 5743 5741 5739 5737 5736 5733 5731 5729 5726 5723 5721 5713 5704 5702 5700 5697 5695 5691 5688 5685 5681 5679
5805 5800 5795 5791 5788 5785 5782 5778 5775 5772 5768 5766 5764 5760 5757 5755 5752 5750 5748 5746 5743 5741 5738 5735 5733 5731 5728 5727 5724 5722 5719 5717 5713 5705 5699 5697 5693 5691 5687 5684 5681 5678 5675
5805 5799 5794 5790 5787 5784 5781 5777 5773 5770 5766 5763 5761 5758 5755 5752 5749 5747 5744 5742 5740 5737 5735 5732 5730 5727 5724 5723 5720 5717 5714 5711 5707 5702 5696 5692 5688 5686 5682 5677 5674 5672 5670
5803 5798 5793 5790 5786 5783 5779 5776 5772 5769 5765 5761 5758 5754 5751 5748 5745 5743 5741 5739 5736 5733 5731 5728 5726 5723 5721 5718 5716 5712 5709 5705 5701 5696 5691 5687 5682 5679 5676 5674 5669 5666 5664
5801 5796 5793 5789 5784 5780 5776 5773 5770 5765 5762 5758 5754 5750 5747 5744 5740 5738 5737 5735 5732 5729 5726 5724 5722 5720 5716 5713 5711 5708 5704 5700 5695 5691 5687 5682 5678 5675 5672 5670 5665 5660 5656
5799 5795 5791 5787 5782 5778 5774 5770 5765 5762 5759 5755 5751 5747 5742 5737 5735 5734 5732 5730 5728 5725 5722 5719 5719 5716 5713 5710 5706 5702 5699 5696 5693 5689 5683 5679 5675 5672 5668 5664 5660 5656 5652
5795 5792 5788 5784 5779 5775 5771 5766 5762 5758 5755 5751 5747 5744 5739 5734 5730 5728 5726 5725 5723 5720 5717 5714 5711 5708 5706 5703 5701 5697 5693 5690 5688 5684 5680 5676 5673 5669 5665 5660 5656 5652 5650
5791 5788 5785 5780 5775 5771 5767 5763 5760 5756 5751 5747 5744 5740 5735 5729 5727 5725 5722 5721 5718 5715 5713 5709 5706 5703 5700 5698 5695 5690 5687 5684 5681 5678 5675 5671 5668 5664 5659 5655 5651 5646 5641
5788 5785 5782 5777 5772 5767 5764 5760 5757 5752 5747 5743 5738 5735 5731 5726 5723 5721 5717 5716 5713 5710 5707 5704 5700 5697 5693 5691 5688 5685 5680 5677 5675 5671 5667 5664 5661 5657 5653 5648 5644 5639 5635
5785 5782 5777 5773 5768 5764 5760 5756 5752 5747 5741 5737 5733 5729 5726 5723 5719 5715 5712 5710 5709 5706 5702 5699 5694 5690 5687 5685 5682 5679 5674 5671 5669 5666 5662 5658 5655 5651 5647 5643 5639 5634 5629
5778 5775 5771 5767 5763 5759 5754 5750 5746 5742 5736 5732 5727 5723 5720 5717 5714 5710 5706 5703 5701 5699 5697 5694 5689 5684 5681 5678 5675 5672 5669 5666 5663 5660 5656 5651 5647 5644 5640 5636 5633 5629 5625
5770 5766 5763 5760 5756 5752 5747 5743 5739 5735 5731 5727 5723 5718 5714 5711 5706 5703 5700 5697 5694 5691 5689 5686 5682 5678 5674 5672 5669 5666 5663 5660 5657 5653 5648 5645 5642 5638 5635 5631 5627 5623 5619
5760 5757 5755 5752 5748 5745 5742 5738 5734 5730 5727 5723 5718 5714 5709 5704 5700 5696 5693 5689 5685 5682 5680 5677 5674 5671 5667 5664 5662 5659 5657 5654 5650 5646 5643 5639 5636 5632 5628 5624 5620 5615 5610
5752 5749 5747 5744 5741 5736 5732 5729 5727 5723 5721 5718 5715 5710 5704 5697 5692 5688 5686 5683 5679 5676 5671 5669 5667 5664 5660 5659 5656 5653 5650 5646 5642 5639 5636 5631 5628 5625 5620 5617 5612 5607 5602
5743 5740 5739 5736 5732 5728 5723 5717 5712 5713 5711 5709 5706 5703 5698 5692 5685 5681 5678 5674 5671 5667 5664 5662 5660 5658 5655 5652 5649 5645 5641 5638 5635 5631 5628 5624 5620 5616 5613 5609 5604 5600 5595
5736 5733 5732 5729 5724 5721 5717 5712 5705 5700 5698 5696 5694 5692 5688 5683 5678 5674 5670 5666 5662 5659 5657 5656 5653 5650 5648 5645 5642 5638 5634 5630 5627 5623 5620 5616 5612 5609 5604 5600 5596 5592 5588
5728 5726 5724 5721 5718 5715 5711 5707 5702 5696 5692 5688 5683 5680 5677 5673 5669 5665 5661 5657 5654 5652 5651 5650 5647 5644 5640 5637 5633 5630 5626 5622 5619 5616 5613 5609 5605 5601 5596 5592 5588 5584 5580
5720 5718 5716 5714 5712 5709 5705 5701 5697 5693 5688 5683 5677 5670 5666 5662 5658 5654 5651 5651 5650 5648 5646 5644 5641 5637 5633 5629 5625 5622 5618 5614 5611 5607 5604 5601 5597 5593 5588 5585 5581 5576 5572
5710 5708 5707 5705 5703 5700 5697 5694 5690 5686 5682 5678 5672 5667 5660 5656 5652 5647 5645 5645 5644 5642 5640 5637 5634 5630 5626 5621 5618 5614 5610 5607 5603 5599 5596 5593 5590 5586 5581 5577 5574 5570 5566
5702 5700 5698 5697 5695 5693 5690 5687 5685 5681 5676 5672 5667 5662 5656 5653 5649 5645 5641 5639 5638 5636 5633 5630 5626 5622 5618 5614 5610 5607 5603 5600 5596 5593 5589 5586 5583 5579 5575 5572 5568 5565 5561
5694 5692 5690 5689 5687 5685 5683 5680 5677 5674 5669 5665 5660 5655 5647 5646 5644 5641 5637 5634 5632 5630 5627 5624 5620 5616 5612 5608 5604 5601 5597 5593 5590 5586 5582 5579 5576 5572 5569 5566 5562 5559 5555
5684 5683 5681 5680 5679 5675 5673 5671 5668 5665 5661 5657 5653 5648 5641 5639 5638 5635 5632 5629 5626 5623 5620 5616 5613 5610 5606 5602 5599 5595 5590 5586 5582 5578 5574 5571 5569 5566 5563 5560 5556 5553 5549
5676 5674 5672 5671 5669 5667 5665 5663 5660 5657 5654 5651 5646 5641 5637 5633 5631 5628 5626 5623 5620 5616 5613 5609 5606 5603 5599 5595 5590 5586 5582 5579 5575 5571 5567 5564 5561 5559 5557 5553 5550 5547 5543
5667 5666 5664 5663 5661 5659 5657 5654 5652 5649 5646 5644 5640 5635 5632 5628 5625 5622 5619 5615 5612 5609 5606 5603 5599 5595 5590 5586 5582 5578 5575 5571 5567 5563 5559 5557 5555 5552 5550 5547 5544 5540 5536
5658 5657 5656 5655 5653 5651 5650 5647 5644 5642 5639 5636 5633 5629 5625 5622 5619 5615 5612 5608 5605 5602 5599 5596 5592 5588 5583 5579 5575 5571 5567 5563 5560 5556 5553 5550 5548 5545 5543 5540 5537 5533 5530